GFSFLT1_850_dewp_276.txt.gz
Dewpoint
-4 -5 -5 -5 -7 -3 5 9 14 13 14 13 13 13 12 11 11 10 7 3 2 -3 -6 -7 -5 -3 -3 -2 -2 -3 -3 1
-3 -4 -5 -5 -5 -6 3 12 14 14 15 15 15 14 12 12 11 11 11 8 4 2 -3 -5 -6 -5 -4 -3 -3 -2 -3 0
-3 -3 -4 -4 -3 -2 -1 5 11 13 14 14 15 14 13 12 11 12 11 11 8 4 0 -5 -6 -6 -6 -4 -3 -2 -2 -0
-0 -2 -1 -2 -1 -1 0 1 3 6 10 14 14 15 15 14 13 11 9 10 10 8 5 1 -4 -6 -6 -6 -2 -1 -2 -2
1 -0 -1 -0 -0 3 3 2 4 3 4 9 11 15 14 14 13 12 10 8 10 11 10 8 2 -4 -5 -3 -3 1 -2 -3
0 0 -0 -1 0 0 3 4 4 5 5 11 12 13 13 14 13 13 13 12 11 9 10 10 9 3 -2 -3 -0 2 -0 -3
0 -1 -0 -1 -1 -1 -0 1 2 4 4 6 10 11 12 13 13 13 13 13 12 12 11 10 10 9 3 -2 -1 3 5 2
1 -2 -3 -1 -1 -1 -1 -1 -0 1 2 4 5 7 10 10 13 13 13 13 13 13 12 11 10 9 7 3 0 1 5 7
0 -1 -4 -4 -4 -3 -2 -2 -2 -1 -0 2 3 4 6 7 10 11 12 13 13 13 13 13 13 10 9 5 3 2 3 7
-1 -2 -4 -3 -2 -4 -5 -3 -2 -2 -1 -0 1 2 4 5 5 7 12 14 13 13 13 13 12 13 12 10 8 6 6 5
-2 -3 -4 -5 -3 -1 -5 -6 -4 -3 -2 -0 1 1 3 4 4 5 6 9 13 13 13 13 12 11 13 13 11 10 9 9
-2 -4 -4 -7 -6 -2 -3 -6 -8 -5 -3 -2 0 1 1 3 4 4 4 5 11 13 13 13 13 14 13 14 13 12 11 11
-0 -3 -7 -6 -5 -4 -3 -6 -8 -8 -7 -4 -1 1 1 2 3 5 5 4 7 11 12 13 13 13 14 14 13 12 13 12
0 -4 -6 -6 -6 -6 -5 -6 -8 -9 -9 -6 -3 -1 0 2 2 4 5 6 4 7 9 9 12 13 13 13 13 12 13 12
-1 -4 -3 -5 -6 -6 -6 -7 -7 -9 -10 -10 -5 -2 -1 -2 1 2 4 5 6 6 7 8 8 8 11 8 9 13 13 13
-3 -3 -3 -6 -6 -6 -6 -7 -8 -9 -9 -10 -10 -3 -1 -1 -3 1 2 3 5 6 7 8 9 9 8 8 9 8 6 11
-4 -3 -5 -6 -5 -5 -6 -6 -8 -9 -10 -10 -10 -10 -5 -1 -1 -3 1 3 3 5 6 7 8 8 10 8 9 10 6 9
-3 -2 -5 -6 -5 -5 -6 -7 -9 -10 -11 -10 -9 -10 -9 -7 -2 -1 -3 1 2 3 5 5 6 6 7 10 9 8 7 8
-3 -4 -6 -5 -5 -5 -5 -7 -10 -11 -12 -10 -9 -8 -8 -7 -7 -6 -1 -3 1 2 3 3 4 4 5 8 9 10 10 9

GFSFLT1_850_dewp_279.txt.gz
Dewpoint
-4 -5 -3 -3 -3 -3 -2 7 10 13 13 14 14 14 13 12 12 12 12 11 8 3 -4 -5 -4 -2 -0 0 2 4 4 6
-3 -4 -4 -3 -1 -2 -2 -1 9 12 12 13 14 14 14 13 12 12 12 13 11 8 5 -3 -5 -3 -3 -3 -1 -0 1 1
-5 -4 -4 -4 -1 1 1 1 3 8 10 12 13 14 14 14 13 12 12 12 12 11 8 6 -1 -4 -3 -3 -2 -1 -1 -0
-3 -4 -3 -3 -3 -1 2 3 3 4 5 7 10 13 14 14 14 14 12 12 12 12 12 10 8 2 -3 -4 -3 -2 -2 -2
0 -1 -3 -3 -3 -2 -1 1 2 4 4 4 6 10 13 13 13 14 13 12 12 12 13 12 11 9 5 -1 -3 -3 -1 -2
1 -1 -4 -4 -4 -3 -2 -2 -0 1 3 4 6 9 11 11 13 13 13 13 13 13 12 12 12 11 9 8 2 -1 -1 1
-0 -1 -3 -5 -6 -7 -6 -4 -2 -1 0 2 4 6 9 10 12 13 12 13 12 13 13 13 11 11 11 10 8 5 0 2
-0 0 -2 -4 -5 -4 -7 -8 -6 -3 -2 -1 1 3 5 7 9 10 12 12 12 11 11 10 12 12 12 11 11 9 6 2
-1 -1 -3 -4 -5 -5 -4 -8 -9 -6 -4 -2 -1 0 2 4 6 8 9 10 12 12 10 9 9 11 11 13 12 11 10 8
-1 -3 -4 -6 -7 -7 -3 -8 -10 -9 -7 -5 -2 -1 -0 2 4 5 6 7 10 11 12 13 12 12 11 12 13 12 11 10
-1 -1 -3 -7 -6 -6 -7 -9 -9 -11 -10 -7 -4 -2 -0 0 1 3 4 5 7 10 11 12 13 12 11 13 12 11 13 12
-0 -0 -4 -6 -7 -6 -7 -9 -10 -11 -11 -11 -7 -4 -2 -0 0 1 3 4 5 6 10 11 11 12 13 12 12 11 12 12
-1 -1 -4 -4 -6 -6 -6 -8 -9 -10 -11 -12 -12 -7 -4 -2 -1 -0 1 2 4 5 6 10 11 11 12 12 13 12 13 13
-1 -4 -3 -5 -6 -6 -6 -7 -8 -10 -11 -12 -12 -12 -5 -3 -2 -2 -2 1 2 4 5 5 9 10 11 12 12 12 12 12
-3 -3 -2 -5 -6 -5 -5 -6 -8 -10 -11 -12 -12 -11 -10 -8 -2 -2 -2 -2 1 2 3 5 6 7 8 9 10 11 12 12
-4 -3 -3 -5 -6 -5 -5 -6 -7 -10 -12 -13 -13 -11 -10 -9 -8 -6 -1 -2 -2 2 2 2 5 6 6 8 9 10 10 11
-5 -4 -3 -4 -6 -5 -5 -5 -6 -9 -11 -12 -12 -13 -12 -10 -9 -9 -8 -2 -2 1 2 2 3 5 5 6 8 9 10 10
-4 -4 -3 -5 -6 -5 -5 -5 -6 -8 -10 -11 -12 -13 -13 -11 -9 -9 -10 -9 -1 -1 1 2 3 4 5 5 6 7 8 9
-5 -4 -3 -6 -5 -5 -5 -5 -6 -7 -9 -10 -11 -12 -12 -13 -11 -10 -10 -9 -8 -2 -1 -0 1 2 3 3 4 5 6 7

GFSFLT1_850_dewp_282.txt.gz
Dewpoint
-2 -0 1 1 -2 -1 -0 1 -0 6 8 12 13 14 14 15 14 14 14 13 12 8 4 4 5 9 10 10 10 10 9 8
-3 -1 0 1 1 -2 -1 3 1 2 7 10 12 13 14 13 14 14 14 13 14 13 10 7 5 7 8 10 11 11 10 9
-4 -3 -1 0 1 1 -0 1 3 4 4 6 8 11 12 13 14 14 14 14 13 14 13 11 9 8 8 8 7 10 9 9
-3 -3 -2 -1 -0 0 1 1 1 3 3 5 6 7 9 11 13 13 13 14 14 13 14 14 12 10 9 6 4 -1 8 9
-3 -2 -2 -2 -1 -0 -1 0 1 1 1 3 4 7 7 9 12 12 13 13 12 13 14 14 14 13 11 9 5 3 6 6
-4 -3 -3 -2 -1 -0 -1 -2 -1 1 1 1 4 5 5 8 9 10 11 12 13 13 13 13 13 13 13 12 11 8 6 7
-4 -4 -3 -3 -2 -1 -0 -2 -3 -1 1 2 3 3 3 4 6 8 10 11 12 12 12 12 13 13 13 13 13 12 11 9
-7 -4 -4 -3 -3 -3 -1 -2 -4 -3 -1 -0 2 3 3 4 4 5 7 9 10 12 12 10 11 12 12 11 13 13 12 12
-8 -4 -3 -3 -3 -3 -2 -3 -4 -4 -2 -2 0 2 2 3 3 2 4 6 8 10 11 12 12 11 11 9 10 13 13 13
-7 -3 -1 -3 -3 -3 -1 -2 -4 -4 -3 -3 -3 -1 1 2 2 3 2 2 4 6 9 11 11 10 12 8 8 11 12 13
-3 -2 -0 -2 -3 -3 -1 -2 -4 -4 -3 -6 -8 -6 -4 1 2 2 2 3 2 2 5 9 10 10 11 10 11 9 12 12
-3 -1 -1 -2 -3 -3 -2 -2 -3 -3 -4 -4 -13 -14 -11 -6 1 2 2 2 3 1 2 5 9 10 11 11 12 11 12 12
-3 -1 -2 -2 -2 -3 -2 -3 -3 -3 -4 -4 -5 -10 -13 -12 -11 -2 1 1 2 3 3 3 4 7 9 11 11 11 12 11
-4 -3 -2 -2 -2 -3 -3 -3 -3 -3 -4 -5 -4 -5 -8 -10 -11 -11 -8 0 1 2 3 3 3 3 5 8 9 10 11 11
-5 -4 -3 -2 -2 -3 -3 -3 -3 -3 -4 -6 -5 -6 -7 -3 -9 -11 -10 -7 1 1 0 2 3 4 3 5 7 8 10 10
-6 -5 -4 -3 -3 -3 -3 -3 -3 -3 -4 -5 -5 -4 -4 -4 -7 -10 -12 -10 -5 0 -0 2 2 3 3 4 4 6 7 8
-7 -5 -4 -3 -3 -3 -3 -3 -3 -3 -4 -4 -5 -4 -4 -4 -3 -2 -5 -12 -8 -3 -0 -0 1 1 2 2 3 4 5 6
-6 -6 -5 -4 -3 -3 -3 -3 -3 -3 -4 -4 -5 -4 -5 -5 -4 -3 -3 -8 -11 -9 -8 -3 -0 -0 1 2 2 2 3 4
-5 -5 -5 -4 -4 -4 -3 -3 -4 -4 -4 -4 -5 -5 -5 -5 -4 -4 -5 -8 -14 -13 -8 -7 -6 -2 -1 0 1 1 2 2

GFSFLT1_850_dewp_288.txt.gz
Dewpoint
-4 -3 -2 -1 1 0 -1 0 1 1 -1 1 2 3 6 9 12 13 13 14 13 14 13 11 9 9 10 10 10 10 10 10
-5 -5 -3 -2 -1 0 -0 -1 -1 0 -2 3 1 0 6 7 9 10 12 13 13 13 12 13 12 8 8 10 11 10 10 9
-5 -5 -4 -4 -2 -1 0 -1 -1 -1 -1 2 2 4 5 6 5 3 8 11 12 12 10 8 12 13 9 9 9 11 10 10
-6 -5 -4 -4 -3 -2 -1 -1 -2 -2 -4 -3 -2 1 1 3 4 6 4 4 8 11 11 11 10 13 13 11 8 9 11 11
-8 -7 -6 -4 -3 -2 -1 -1 -3 -2 -3 -5 -3 2 2 3 4 4 5 5 4 7 9 11 10 10 9 13 12 9 9 11
-10 -9 -9 -6 -3 -3 -2 -1 -3 -3 -2 -3 -3 -3 0 2 3 3 4 4 4 6 7 10 10 10 11 9 10 12 11 10
-8 -8 -9 -8 -4 -3 -2 -1 -3 -3 -2 -2 -2 -4 -2 -1 1 3 2 3 3 5 4 5 9 10 10 11 9 11 11 12
-7 -7 -6 -4 -3 -3 -2 -1 -2 -2 -2 -2 -2 -3 -2 -1 0 2 3 2 2 3 4 4 6 7 9 10 10 11 10 10
-5 -5 -5 -4 -4 -3 -2 -1 -2 -2 -2 -2 -2 -3 -2 -1 -1 0 1 2 1 3 2 4 5 5 7 9 10 10 10 10
-6 -5 -3 -3 -3 -4 -2 -1 -2 -2 -2 -2 -2 -5 -3 -2 -1 0 0 1 1 1 2 3 4 5 6 7 8 9 10 10
-6 -6 -4 -4 -3 -3 -3 -2 -2 -2 -2 -3 -3 -3 -4 -4 -3 -2 -1 -1 1 1 2 2 3 4 5 5 5 6 9 9
-7 -6 -5 -5 -4 -4 -3 -3 -2 -2 -2 -3 -3 -3 -2 -4 -4 -4 -2 -1 -0 0 1 -1 -1 3 4 3 2 2 2 6
-7 -7 -6 -5 -5 -4 -4 -4 -3 -3 -3 -4 -4 -3 -3 -3 -4 -5 -5 -2 -2 -1 1 -1 -2 -2 1 1 1 1 1 2
-7 -8 -8 -6 -6 -5 -5 -4 -4 -3 -3 -3 -3 -3 -3 -3 -4 -6 -8 -4 -2 -2 -1 -0 -2 1 -7 -4 -2 -1 0 1
-8 -8 -8 -7 -6 -6 -5 -5 -4 -3 -3 -3 -3 -3 -4 -3 -4 -5 -7 -4 -3 -3 -3 -3 -0 -2 -8 -11 -11 -9 -4 -2
-9 -9 -8 -8 -7 -7 -6 -5 -4 -4 -3 -3 -3 -4 -4 -5 -5 -5 -5 -4 -6 -6 -13 -5 -4 -1 -2 -5 -13 -13 -12 -10
-9 -9 -9 -8 -7 -6 -6 -5 -5 -3 -3 -3 -4 -4 -4 -6 -6 -5 -5 -5 -7 -7 -13 -7 -5 -4 -4 -3 -9 -15 -15 -12
-9 -9 -8 -8 -7 -6 -7 -7 -5 -4 -4 -5 -5 -5 -6 -7 -6 -5 -4 -6 -4 -5 -7 -6 -5 -3 -2 -4 -11 -15 -15 -13
-8 -8 -8 -8 -7 -6 -6 -6 -6 -5 -6 -6 -5 -5 -8 -7 -6 -5 -5 -7 -5 -4 -5 -4 -6 -4 -3 -4 -7 -13 -16 -16

GFSFLT1_850_dewp_291.txt.gz
Dewpoint
-5 -4 -4 -3 -5 -3 -3 -4 -7 -8 -9 -10 -8 -2 4 7 6 5 4 8 11 12 12 13 11 10 10 10 11 10 10 10
-5 -4 -4 -4 -3 -4 -1 -2 -4 -8 -10 -9 -7 -6 1 3 4 5 3 3 6 10 11 11 9 11 10 10 10 11 10 10
-6 -6 -4 -4 -3 -4 -5 -2 -3 -4 -8 -9 -9 -7 -5 -2 -1 1 5 4 2 5 10 11 11 11 10 10 10 10 10 11
-8 -9 -8 -2 -3 -3 -4 -2 -3 -3 -5 -10 -12 -12 -9 -6 -5 -2 1 3 3 3 6 8 10 10 10 9 10 8 10 10
-10 -9 -9 -5 -3 -3 -3 -3 -2 -3 -4 -8 -7 -9 -5 -1 -2 -3 -3 0 1 4 4 5 8 10 10 11 11 8 9 10
-8 -8 -8 -4 -3 -3 -3 -4 -2 -2 -2 -5 -6 -8 -8 -5 -7 -6 -5 -6 -4 -0 3 4 4 8 9 10 10 10 10 8
-7 -6 -6 -5 -4 -3 -3 -3 -2 -2 -2 -4 -5 -6 -8 -10 -10 -7 -7 -9 -11 -4 -3 -1 3 5 7 8 9 10 10 10
-5 -5 -5 -5 -4 -4 -3 -3 -1 -2 -3 -4 -5 -5 -6 -7 -8 -6 -6 -7 -11 -13 -4 -2 -1 3 5 7 7 9 10 10
-6 -5 -3 -4 -4 -3 -3 -3 -2 -2 -2 -3 -3 -5 -7 -8 -6 -6 -7 -6 -6 -10 -8 -0 -3 -1 4 5 5 7 8 9
-6 -6 -4 -4 -3 -3 -3 -3 -2 -2 -2 -3 -3 -4 -5 -5 -8 -8 -9 -9 -5 -6 -7 -6 -5 -0 4 3 3 2 4 6
-7 -6 -6 -5 -4 -4 -3 -3 -3 -3 -3 -3 -3 -4 -4 -5 -6 -6 -7 -10 -9 -5 -4 -8 -9 -8 0 -3 -2 -0 0 1
-7 -7 -6 -6 -5 -5 -4 -4 -4 -4 -3 -3 -4 -4 -4 -6 -7 -7 -7 -8 -8 -6 -2 -5 -10 -11 -9 -7 -5 -4 -1 0
-7 -7 -8 -8 -6 -6 -5 -5 -4 -4 -4 -3 -4 -4 -4 -5 -7 -8 -11 -10 -6 -5 -6 -5 -6 -11 -12 -10 -10 -11 -10 -4
-7 -8 -8 -8 -8 -7 -6 -6 -5 -5 -4 -4 -4 -4 -4 -4 -6 -7 -10 -13 -9 -6 -7 -10 -5 -7 -13 -11 -11 -14 -13 -10
-9 -9 -8 -8 -8 -8 -7 -7 -6 -5 -4 -4 -4 -4 -4 -4 -5 -7 -10 -11 -9 -10 -10 -10 -5 -5 -9 -13 -13 -16 -18 -14
-10 -9 -9 -9 -9 -8 -7 -6 -7 -5 -5 -5 -4 -4 -4 -4 -5 -9 -7 -8 -12 -13 -11 -10 -7 -4 -3 -3 -9 -16 -15 -20
-9 -9 -9 -9 -9 -7 -7 -6 -6 -6 -5 -4 -5 -5 -5 -5 -6 -13 -10 -7 -7 -13 -14 -11 -9 -6 -5 -2 -3 -10 -15 -14
-8 -8 -8 -8 -8 -8 -7 -7 -6 -6 -6 -5 -5 -6 -5 -6 -6 -15 -12 -8 -9 -10 -9 -9 -5 -5 -6 -6 -5 -5 -10 -12
-8 -8 -8 -7 -7 -7 -7 -6 -5 -6 -6 -6 -6 -6 -6 -6 -6 -16 -12 -7 -10 -12 -8 -5 -5 -7 -9 -11 -6 -5 -7 -14

GFSFLT1_850_dewp_297.txt.gz
Dewpoint
-3 -3 -3 -3 -4 -4 -4 -6 -8 -11 -13 -13 -12 -10 -9 -9 -9 -7 -8 -7 -5 -1 3 7 9 10 11 12 12 11 9 10
-3 -3 -3 -3 -3 -3 -4 -5 -4 -9 -13 -14 -14 -13 -13 -13 -11 -10 -10 -9 -7 -6 -1 4 6 8 10 10 11 10 8 9
-8 -5 -3 -3 -3 -3 -4 -3 -4 -5 -8 -11 -12 -13 -14 -14 -14 -14 -13 -13 -11 -9 -6 -3 2 5 8 10 10 11 10 10
-8 -7 -4 -4 -4 -3 -4 -4 -4 -4 -5 -9 -11 -12 -13 -14 -15 -16 -15 -15 -14 -13 -12 -9 -6 -1 4 7 9 9 9 10
-7 -5 -4 -4 -4 -4 -4 -3 -5 -5 -6 -8 -10 -11 -12 -13 -14 -14 -15 -16 -15 -15 -13 -12 -11 -8 -3 3 5 7 8 9
-7 -6 -5 -4 -4 -4 -3 -3 -4 -4 -5 -8 -10 -11 -11 -12 -14 -15 -16 -16 -17 -17 -16 -14 -13 -12 -10 -5 -2 3 5 7
-7 -6 -5 -4 -4 -3 -3 -3 -3 -4 -4 -5 -7 -11 -13 -15 -16 -15 -16 -17 -17 -17 -17 -17 -16 -15 -14 -11 -7 -4 -3 1
-7 -6 -6 -5 -6 -4 -4 -4 -4 -4 -4 -5 -5 -7 -9 -14 -14 -15 -16 -16 -17 -18 -18 -17 -16 -17 -17 -16 -13 -8 -4 -1
-6 -6 -7 -7 -6 -4 -4 -4 -4 -4 -5 -5 -5 -6 -6 -6 -14 -14 -14 -15 -17 -17 -18 -19 -19 -19 -18 -17 -15 -13 -11 -5
-6 -7 -7 -7 -7 -7 -7 -6 -5 -5 -5 -6 -6 -5 -5 -5 -8 -13 -13 -14 -16 -18 -17 -18 -20 -22 -22 -21 -16 -16 -16 -14
-7 -8 -8 -8 -7 -7 -8 -7 -7 -6 -7 -7 -5 -5 -5 -5 -7 -13 -15 -15 -17 -19 -19 -19 -19 -21 -20 -20 -20 -20 -22 -20
-8 -8 -8 -7 -7 -7 -8 -8 -8 -7 -7 -7 -7 -7 -7 -6 -7 -8 -16 -16 -16 -18 -20 -20 -19 -20 -19 -19 -19 -19 -20 -21
-8 -8 -8 -7 -7 -8 -8 -8 -8 -8 -7 -7 -7 -7 -7 -8 -8 -8 -12 -15 -17 -19 -20 -19 -19 -17 -17 -18 -18 -16 -16 -17
-9 -8 -8 -8 -7 -8 -8 -8 -8 -8 -7 -7 -7 -7 -7 -7 -6 -7 -7 -11 -12 -18 -20 -19 -18 -18 -17 -17 -18 -17 -17 -15
-8 -8 -8 -7 -7 -8 -8 -8 -8 -7 -7 -7 -7 -7 -7 -6 -6 -7 -7 -7 -10 -9 -17 -18 -17 -17 -16 -15 -14 -14 -14 -16
-8 -8 -8 -8 -8 -8 -7 -7 -7 -7 -7 -7 -6 -6 -6 -6 -6 -7 -6 -6 -7 -7 -9 -16 -16 -15 -16 -15 -13 -11 -14 -17
-9 -9 -9 -9 -9 -9 -10 -10 -10 -10 -10 -10 -10 -7 -6 -6 -6 -6 -5 -6 -6 -7 -7 -8 -15 -14 -16 -15 -11 -12 -15 -20
-7 -8 -8 -9 -9 -9 -9 -9 -9 -9 -9 -9 -10 -10 -10 -10 -7 -5 -6 -5 -6 -6 -6 -7 -13 -14 -15 -15 -9 -11 -15 -20
-7 -6 -6 -7 -7 -8 -8 -8 -8 -8 -8 -9 -9 -9 -9 -9 -10 -9 -4 -5 -5 -5 -6 -6 -12 -14 -14 -12 -9 -10 -14 -16